7 * 24
多渠道服务支持
STARLINK-34340 是 SpaceX Starlink 卫星互联网项目中的一颗低轨卫星,属于其第二代卫星群(Gen2)。该卫星于2024年发射,旨在为全球用户提供高速、低延迟的互联网服务。它运行在约550公里高的近地轨道,配备先进通信设备和激光链路,以提升网络效率与覆盖范围。作为 Starlink 计划的重要组成部分,该卫星有助于增强偏远地区的网络接入能力,并支持未来可能的扩展应用,如自动驾驶和航空通信。
美国
(US)
| 数据来源 | 国际轨道数据 |
| 星历时间: | 2025-11-08T22:05:44+0800 21小时前 查看轨道信息 |
| 半长轴: | 6927.619km |
| 偏心率: | 0.0000594 |
| 轨道倾角: | 97.603° |
| 近地点辐角 | 121.351° |
| 升交点赤经 | 2.113° |
| 平近点角 | 238.777° |
| 近地点: | 549.072km |
| 远地点: | 549.896km |
| 周期: | 95.639分钟 |
| 每日圈数: | 15.056597 |